| time (UTC) | temp F | wind direction | speed knots | gust knots | rain 1hr in | rain 24hr in | rain mn in | humidity % | barometer mb |
| 20260505014943 | 76 | 253 | 4.3 | 6.1 | 0.00 | 0.00 | 0.00 | 73 | 1007.3 |
| 20260505014440 | 76 | 221 | 5.2 | 6.1 | 0.00 | 0.00 | 0.00 | 73 | 1007.5 |
| 20260505013937 | 76 | 232 | 2.6 | 2.6 | 0.00 | 0.00 | 0.00 | 73 | 1007.5 |
| 20260505013434 | 76 | 231 | 6.1 | 7.8 | 0.00 | 0.00 | 0.00 | 73 | 1007.3 |
| 20260505012932 | 76 | 204 | 3.5 | 4.3 | 0.00 | 0.00 | 0.00 | 73 | 1007.4 |
| 20260505012430 | 76 | 212 | 2.6 | 4.3 | 0.00 | 0.00 | 0.00 | 72 | 1007.3 |
| 20260505011926 | 75 | 233 | 3.5 | 5.2 | 0.00 | 0.00 | 0.00 | 73 | 1007.1 |
| 20260505011422 | 75 | 219 | 2.6 | 2.6 | 0.00 | 0.00 | 0.00 | 73 | 1007.2 |
| 20260505010919 | 76 | 232 | 2.6 | 2.6 | 0.00 | 0.00 | 0.00 | 72 | 1007.2 |
| 20260505010415 | 76 | 202 | 2.6 | 2.6 | 0.00 | 0.00 | 0.00 | 72 | 1007.3 |
| 20260505005911 | 76 | 229 | 2.6 | 4.3 | 0.00 | 0.00 | 0.00 | 71 | 1007.2 |
| 20260505005408 | 76 | 198 | 2.6 | 2.6 | 0.00 | 0.00 | 0.00 | 71 | 1007.2 |
| 20260505004905 | 76 | 199 | 2.6 | 2.6 | 0.00 | 0.00 | 0.00 | 70 | 1007.0 |
| 20260505004401 | 77 | 200 | 4.3 | 5.2 | 0.00 | 0.00 | 0.00 | 70 | 1007.3 |
| 20260505003859 | 77 | 222 | 2.6 | 4.3 | 0.00 | 0.00 | 0.00 | 70 | 1007.1 |
| 20260505003356 | 77 | 221 | 3.5 | 4.3 | 0.00 | 0.00 | 0.00 | 69 | 1007.4 |
| 20260505002852 | 77 | 214 | 1.7 | 1.7 | 0.00 | 0.00 | 0.00 | 69 | 1007.1 |
| 20260505002349 | 77 | 213 | 2.6 | 2.6 | 0.00 | 0.00 | 0.00 | 68 | 1007.4 |
| 20260505001847 | 78 | 241 | 5.2 | 7.0 | 0.00 | 0.00 | 0.00 | 68 | 1007.3 |
| 20260505001344 | 78 | 229 | 2.6 | 2.6 | 0.00 | 0.00 | 0.00 | 68 | 1007.3 |
| 20260505000841 | 78 | 224 | 6.1 | 7.8 | 0.00 | 0.00 | 0.00 | 67 | 1007.2 |
| 20260505000339 | 78 | 235 | 4.3 | 7.0 | 0.00 | 0.00 | 0.00 | 67 | 1007.1 |
| 20260504235835 | 78 | 246 | 1.7 | 1.7 | 0.00 | 0.00 | 0.00 | 67 | 1007.2 |
| 20260504235333 | 78 | 182 | 1.7 | 1.7 | 0.00 | 0.00 | 0.00 | 67 | 1007.4 |
| 20260504234829 | 78 | 216 | 2.6 | 2.6 | 0.00 | 0.00 | 0.00 | 67 | 1007.4 |
| 20260504234327 | 79 | 186 | 5.2 | 7.8 | 0.00 | 0.00 | 0.00 | 66 | 1007.4 |
| 20260504233823 | 79 | 221 | 3.5 | 4.3 | 0.00 | 0.00 | 0.00 | 66 | 1007.4 |
| 20260504233319 | 79 | 225 | 2.6 | 4.3 | 0.00 | 0.00 | 0.00 | 66 | 1007.2 |
| 20260504232816 | 79 | 151 | 3.5 | 5.2 | 0.00 | 0.00 | 0.00 | 65 | 1007.3 |
| 20260504232313 | 79 | 218 | 4.3 | 5.2 | 0.00 | 0.00 | 0.00 | 65 | 1007.1 |
| 20260504231810 | 79 | 210 | 6.1 | 7.0 | 0.00 | 0.00 | 0.00 | 64 | 1007.4 |
| 20260504231306 | 80 | 228 | 2.6 | 2.6 | 0.00 | 0.00 | 0.00 | 64 | 1007.5 |
| 20260504230802 | 80 | 231 | 2.6 | 2.6 | 0.00 | 0.00 | 0.00 | 64 | 1007.8 |
| 20260504230300 | 80 | 234 | 6.1 | 7.8 | 0.00 | 0.00 | 0.00 | 63 | 1007.7 |
| 20260504225759 | 80 | 151 | 3.5 | 5.2 | 0.00 | 0.00 | 0.00 | 62 | 1007.7 |
| 20260504225255 | 80 | 220 | 3.5 | 5.2 | 0.00 | 0.00 | 0.00 | 63 | 1007.7 |
| 20260504224752 | 80 | 210 | 3.5 | 4.3 | 0.00 | 0.00 | 0.00 | 62 | 1007.7 |
| 20260504224249 | 80 | 203 | 3.5 | 5.2 | 0.00 | 0.00 | 0.00 | 61 | 1007.8 |
| 20260504223746 | 80 | 231 | 4.3 | 4.3 | 0.00 | 0.00 | 0.00 | 61 | 1007.8 |
| 20260504223241 | 80 | 201 | 4.3 | 6.1 | 0.00 | 0.00 | 0.00 | 61 | 1007.8 |
| 20260504222738 | 81 | 222 | 5.2 | 6.1 | 0.00 | 0.00 | 0.00 | 60 | 1008.0 |
| 20260504222235 | 81 | 156 | 4.3 | 5.2 | 0.00 | 0.00 | 0.00 | 60 | 1007.8 |
| 20260504221733 | 81 | 246 | 4.3 | 5.2 | 0.00 | 0.00 | 0.00 | 60 | 1007.9 |
| 20260504221229 | 81 | 217 | 2.6 | 5.2 | 0.00 | 0.00 | 0.00 | 59 | 1008.1 |
| 20260504220725 | 81 | 220 | 2.6 | 2.6 | 0.00 | 0.00 | 0.00 | 59 | 1008.1 |
| 20260504220218 | 81 | 235 | 5.2 | 6.1 | 0.00 | 0.00 | 0.00 | 58 | 1008.2 |
| 20260504215714 | 81 | 182 | 2.6 | 4.3 | 0.00 | 0.00 | 0.00 | 59 | 1007.8 |
| 20260504215212 | 81 | 239 | 3.5 | 4.3 | 0.00 | 0.00 | 0.00 | 59 | 1008.1 |
| 20260504214707 | 82 | 205 | 3.5 | 4.3 | 0.00 | 0.00 | 0.00 | 58 | 1008.2 |
| 20260504214204 | 82 | 225 | 5.2 | 6.1 | 0.00 | 0.00 | 0.00 | 57 | 1008.5 |
| 20260504213701 | 82 | 195 | 1.7 | 1.7 | 0.00 | 0.00 | 0.00 | 57 | 1008.4 |
| 20260504213157 | 82 | 228 | 3.5 | 4.3 | 0.00 | 0.00 | 0.00 | 57 | 1008.4 |
| 20260504212654 | 82 | 244 | 2.6 | 2.6 | 0.00 | 0.00 | 0.00 | 57 | 1008.6 |
| 20260504212150 | 82 | 207 | 2.6 | 2.6 | 0.00 | 0.00 | 0.00 | 57 | 1008.6 |
| 20260504211648 | 83 | 223 | 2.6 | 2.6 | 0.00 | 0.00 | 0.00 | 57 | 1008.6 |
| 20260504211144 | 84 | 228 | 2.6 | 2.6 | 0.00 | 0.00 | 0.00 | 55 | 1008.7 |
| 20260504210642 | 84 | 205 | 3.5 | 4.3 | 0.00 | 0.00 | 0.00 | 54 | 1009.0 |
| 20260504210138 | 83 | 226 | 1.7 | 2.6 | 0.00 | 0.00 | 0.00 | 55 | 1008.8 |
| 20260504205636 | 82 | 214 | 3.5 | 4.3 | 0.00 | 0.00 | 0.00 | 56 | 1009.0 |
| 20260504205133 | 83 | 213 | 3.5 | 5.2 | 0.00 | 0.00 | 0.00 | 57 | 1008.9 |
| 20260504204631 | 83 | 261 | 4.3 | 6.1 | 0.00 | 0.00 | 0.00 | 53 | 1009.2 |
| 20260504204130 | 83 | 233 | 4.3 | 4.3 | 0.00 | 0.00 | 0.00 | 53 | 1009.5 |
| 20260504203628 | 83 | 268 | 3.5 | 5.2 | 0.00 | 0.00 | 0.00 | 55 | 1009.2 |
| 20260504203125 | 84 | 217 | 4.3 | 5.2 | 0.00 | 0.00 | 0.00 | 54 | 1009.5 |
| 20260504202620 | 83 | 237 | 2.6 | 4.3 | 0.00 | 0.00 | 0.00 | 56 | 1009.5 |
| 20260504202117 | 83 | 213 | 3.5 | 6.1 | 0.00 | 0.00 | 0.00 | 55 | 1009.6 |
| 20260504201614 | 82 | 242 | 1.7 | 1.7 | 0.00 | 0.00 | 0.00 | 56 | 1009.8 |
| 20260504201112 | 82 | 90 | 0.9 | 0.9 | 0.00 | 0.00 | 0.00 | 55 | 1009.6 |
| 20260504200608 | 83 | 248 | 2.6 | 4.3 | 0.00 | 0.00 | 0.00 | 54 | 1009.9 |
| 20260504200105 | 83 | 232 | 2.6 | 4.3 | 0.00 | 0.00 | 0.00 | 55 | 1010.0 |
| 20260504195601 | 83 | 235 | 1.7 | 2.6 | 0.00 | 0.00 | 0.00 | 55 | 1010.1 |
| 20260504195057 | 82 | 239 | 4.3 | 7.0 | 0.00 | 0.00 | 0.00 | 55 | 1010.3 |
| 20260504194554 | 82 | 268 | 4.3 | 6.1 | 0.00 | 0.00 | 0.00 | 55 | 1010.2 |
| 20260504194049 | 82 | 356 | 1.7 | 2.6 | 0.00 | 0.00 | 0.00 | 55 | 1010.3 |
| 20260504193546 | 81 | 198 | 3.5 | 5.2 | 0.00 | 0.00 | 0.00 | 56 | 1010.4 |
| 20260504193045 | 82 | 245 | 4.3 | 5.2 | 0.00 | 0.00 | 0.00 | 56 | 1010.3 |
| 20260504192543 | 83 | 201 | 3.5 | 4.3 | 0.00 | 0.00 | 0.00 | 57 | 1010.4 |
| 20260504192041 | 82 | 226 | 3.5 | 4.3 | 0.00 | 0.00 | 0.00 | 56 | 1010.5 |
| 20260504191538 | 81 | 216 | 2.6 | 2.6 | 0.00 | 0.00 | 0.00 | 57 | 1010.5 |
| 20260504191034 | 81 | 260 | 4.3 | 5.2 | 0.00 | 0.00 | 0.00 | 57 | 1011.1 |
| 20260504190531 | 80 | 216 | 4.3 | 5.2 | 0.00 | 0.00 | 0.00 | 56 | 1010.8 |
| 20260504190027 | 81 | 227 | 2.6 | 4.3 | 0.00 | 0.00 | 0.00 | 55 | 1010.8 |
| 20260504185524 | 82 | 274 | 4.3 | 5.2 | 0.00 | 0.00 | 0.00 | 54 | 1011.0 |
| 20260504185020 | 82 | 228 | 2.6 | 2.6 | 0.00 | 0.00 | 0.00 | 56 | 1010.8 |
| 20260504184516 | 81 | 179 | 3.5 | 4.3 | 0.00 | 0.00 | 0.00 | 59 | 1011.1 |
| 20260504184012 | 81 | 236 | 4.3 | 5.2 | 0.00 | 0.00 | 0.00 | 56 | 1011.0 |
| 20260504183509 | 80 | 186 | 0.9 | 1.7 | 0.00 | 0.00 | 0.00 | 56 | 1011.1 |
| 20260504183007 | 81 | 222 | 3.5 | 4.3 | 0.00 | 0.00 | 0.00 | 55 | 1011.4 |
| 20260504182503 | 81 | 214 | 4.3 | 6.1 | 0.00 | 0.00 | 0.00 | 56 | 1011.3 |
| 20260504182001 | 80 | 239 | 3.5 | 4.3 | 0.00 | 0.00 | 0.00 | 56 | 1011.3 |
| 20260504181458 | 80 | 246 | 6.1 | 7.0 | 0.00 | 0.00 | 0.00 | 58 | 1011.5 |
| 20260504180956 | 79 | 241 | 3.5 | 6.1 | 0.00 | 0.00 | 0.00 | 59 | 1011.3 |
| 20260504180455 | 80 | 220 | 2.6 | 4.3 | 0.00 | 0.00 | 0.00 | 59 | 1011.6 |
| 20260504175953 | 80 | 211 | 3.5 | 4.3 | 0.00 | 0.00 | 0.00 | 57 | 1011.5 |
| 20260504175450 | 80 | 242 | 3.5 | 5.2 | 0.00 | 0.00 | 0.00 | 57 | 1011.5 |
| 20260504174947 | 79 | 227 | 1.7 | 1.7 | 0.00 | 0.00 | 0.00 | 58 | 1011.5 |
| 20260504174445 | 80 | 234 | 3.5 | 5.2 | 0.00 | 0.00 | 0.00 | 57 | 1011.7 |
| 20260504173942 | 80 | 235 | 4.3 | 7.8 | 0.00 | 0.00 | 0.00 | 58 | 1011.8 |
| 20260504173438 | 78 | 222 | 2.6 | 2.6 | 0.00 | 0.00 | 0.00 | 58 | 1012.0 |
| 20260504172936 | 79 | 251 | 3.5 | 4.3 | 0.00 | 0.00 | 0.00 | 59 | 1011.9 |
| 20260504172431 | 79 | 254 | 2.6 | 2.6 | 0.00 | 0.00 | 0.00 | 59 | 1012.0 |
| 20260504171928 | 78 | 173 | 1.7 | 1.7 | 0.00 | 0.00 | 0.00 | 58 | 1011.9 |
| 20260504171426 | 79 | 223 | 4.3 | 5.2 | 0.00 | 0.00 | 0.00 | 58 | 1012.2 |
| 20260504170923 | 78 | 253 | 4.3 | 7.0 | 0.00 | 0.00 | 0.00 | 59 | 1012.1 |
| 20260504170419 | 78 | 218 | 2.6 | 4.3 | 0.00 | 0.00 | 0.00 | 59 | 1012.1 |
| 20260504160338 | 76 | 223 | 2.6 | 2.6 | 0.00 | 0.00 | 0.00 | 62 | 1013.3 |
| 20260504150802 | 74 | 214 | 5.2 | 6.1 | 0.00 | 0.00 | 0.00 | 63 | 1013.1 |
| 20260504150259 | 73 | 233 | 3.5 | 5.2 | 0.00 | 0.00 | 0.00 | 65 | 1013.3 |
| 20260504141229 | 71 | 207 | 1.7 | 2.6 | 0.00 | 0.00 | 0.00 | 65 | 1013.4 |
| 20260504140725 | 71 | 232 | 3.5 | 4.3 | 0.00 | 0.00 | 0.00 | 67 | 1013.3 |
| 20260504140221 | 70 | 183 | 2.6 | 2.6 | 0.00 | 0.00 | 0.00 | 67 | 1013.2 |
| 20260504130644 | 64 | 189 | 0.9 | 0.9 | 0.00 | 0.00 | 0.00 | 79 | 1013.1 |
| 20260504130140 | 64 | 170 | 0.9 | 1.7 | 0.00 | 0.00 | 0.00 | 82 | 1013.1 |
| 20260504120104 | 57 | 88 | 0.0 | 0.0 | 0.00 | 0.00 | 0.00 | 94 | 1012.8 |
| 20260504110531 | 56 | 86 | 0.0 | 0.0 | 0.00 | 0.00 | 0.00 | 93 | 1012.6 |
| 20260504100454 | 56 | 88 | 0.0 | 0.0 | 0.00 | 0.00 | 0.00 | 91 | 1012.9 |
| 20260504081847 | 59 | 204 | 0.0 | 0.0 | 0.00 | 0.00 | 0.00 | 87 | 1013.2 |
| 20260504081343 | 59 | 204 | 0.0 | 0.0 | 0.00 | 0.00 | 0.00 | 86 | 1013.6 |
| 20260504080839 | 59 | 204 | 0.0 | 0.0 | 0.00 | 0.00 | 0.00 | 86 | 1013.6 |
| 20260504080337 | 59 | 204 | 0.0 | 0.0 | 0.00 | 0.00 | 0.00 | 85 | 1013.7 |
| 20260504070304 | 59 | 204 | 0.0 | 0.0 | 0.00 | 0.00 | 0.00 | 83 | 1014.5 |
| 20260504060224 | 60 | 204 | 0.0 | 0.0 | 0.00 | 0.00 | 0.00 | 77 | 1015.2 |
| 20260504050652 | 63 | 204 | 0.0 | 0.0 | 0.00 | 0.00 | 0.00 | 76 | 1015.3 |
| 20260504050149 | 64 | 204 | 0.0 | 0.0 | 0.00 | 0.00 | 0.00 | 74 | 1015.5 |
| 20260504045646 | 64 | 204 | 0.0 | 0.0 | 0.00 | 0.15 | 0.15 | 71 | 1015.4 |
| 20260504045146 | 64 | 204 | 0.0 | 0.0 | 0.00 | 0.15 | 0.15 | 69 | 1015.5 |
| 20260504044644 | 64 | 204 | 0.0 | 0.0 | 0.00 | 0.15 | 0.15 | 68 | 1015.5 |
| 20260504044141 | 64 | 204 | 0.0 | 0.0 | 0.00 | 0.15 | 0.15 | 68 | 1015.5 |
| 20260504043638 | 65 | 204 | 0.0 | 0.0 | 0.00 | 0.15 | 0.15 | 68 | 1015.6 |
| 20260504043135 | 65 | 204 | 0.0 | 0.0 | 0.00 | 0.15 | 0.15 | 67 | 1015.5 |
| 20260504042632 | 65 | 212 | 0.0 | 0.9 | 0.00 | 0.15 | 0.15 | 67 | 1015.8 |
| 20260504042129 | 65 | 213 | 0.9 | 0.9 | 0.00 | 0.15 | 0.15 | 66 | 1015.7 |
| 20260504041625 | 66 | 203 | 0.9 | 0.9 | 0.00 | 0.15 | 0.15 | 66 | 1015.6 |
| 20260504041121 | 66 | 228 | 0.9 | 0.9 | 0.00 | 0.15 | 0.15 | 65 | 1015.6 |
| 20260504040618 | 66 | 228 | 0.9 | 0.9 | 0.00 | 0.15 | 0.15 | 64 | 1015.6 |
| 20260504040115 | 66 | 232 | 0.9 | 0.9 | 0.00 | 0.15 | 0.15 | 63 | 1015.6 |
| 20260504035612 | 66 | 219 | 0.0 | 0.9 | 0.00 | 0.15 | 0.15 | 63 | 1015.6 |
| 20260504035108 | 67 | 219 | 1.7 | 1.7 | 0.00 | 0.15 | 0.15 | 62 | 1015.6 |
| 20260504034606 | 67 | 196 | 0.9 | 0.9 | 0.00 | 0.15 | 0.15 | 61 | 1015.4 |
| 20260504034103 | 67 | 200 | 0.9 | 1.7 | 0.00 | 0.15 | 0.15 | 60 | 1015.4 |
| 20260504033601 | 68 | 176 | 0.0 | 0.9 | 0.00 | 0.15 | 0.15 | 60 | 1015.5 |
| 20260504033058 | 68 | 187 | 0.9 | 0.9 | 0.00 | 0.15 | 0.15 | 59 | 1015.6 |
| 20260504032555 | 68 | 180 | 0.0 | 0.9 | 0.00 | 0.15 | 0.15 | 59 | 1015.7 |
| 20260504032052 | 69 | 208 | 0.9 | 0.9 | 0.00 | 0.15 | 0.15 | 58 | 1015.6 |
| 20260504031548 | 69 | 224 | 2.6 | 2.6 | 0.00 | 0.15 | 0.15 | 58 | 1015.5 |
| 20260504031044 | 69 | 223 | 0.9 | 0.9 | 0.00 | 0.15 | 0.15 | 58 | 1015.3 |
| 20260504030542 | 69 | 242 | 2.6 | 4.3 | 0.00 | 0.15 | 0.15 | 58 | 1015.5 |
| 20260504030038 | 69 | 175 | 0.9 | 0.9 | 0.00 | 0.15 | 0.15 | 58 | 1015.3 |
| 20260504025536 | 69 | 207 | 0.9 | 0.9 | 0.00 | 0.15 | 0.15 | 57 | 1015.4 |
| 20260504025032 | 69 | 202 | 1.7 | 2.6 | 0.00 | 0.15 | 0.15 | 56 | 1015.3 |
| 20260504024529 | 70 | 220 | 2.6 | 4.3 | 0.00 | 0.15 | 0.15 | 56 | 1015.4 |
| 20260504024026 | 70 | 207 | 2.6 | 2.6 | 0.00 | 0.15 | 0.15 | 55 | 1015.2 |
| 20260504023523 | 70 | 198 | 1.7 | 1.7 | 0.00 | 0.15 | 0.15 | 56 | 1015.1 |
| 20260504023018 | 70 | 200 | 2.6 | 2.6 | 0.00 | 0.15 | 0.15 | 55 | 1015.2 |
| 20260504022514 | 70 | 205 | 0.9 | 1.7 | 0.00 | 0.15 | 0.15 | 56 | 1015.1 |
| 20260504022011 | 70 | 190 | 2.6 | 2.6 | 0.00 | 0.15 | 0.15 | 54 | 1015.5 |
| 20260504021509 | 70 | 223 | 1.7 | 2.6 | 0.00 | 0.15 | 0.15 | 54 | 1015.2 |
| 20260504021006 | 71 | 193 | 0.9 | 0.9 | 0.00 | 0.15 | 0.15 | 54 | 1014.9 |
| 20260504020502 | 71 | 195 | 2.6 | 2.6 | 0.00 | 0.15 | 0.15 | 55 | 1015.0 |
| 20260504015959 | 71 | 182 | 1.7 | 1.7 | 0.00 | 0.15 | 0.15 | 53 | 1014.9 |
| 20260504015455 | 71 | 201 | 1.7 | 2.6 | 0.00 | 0.15 | 0.15 | 53 | 1014.8 |